| time (UTC) | temp F | wind direction | speed knots | gust knots | rain 1hr in | rain 24hr in | rain mn in | humidity % | barometer mb |
| 20260505073106 | 60 | 177 | 0.9 | 1.7 | 0.00 | 0.13 | 0.13 | 80 | 1013.1 |
| 20260505072601 | 59 | 170 | 0.9 | 1.7 | 0.00 | 0.13 | 0.13 | 79 | 1013.3 |
| 20260505072058 | 59 | 192 | 0.9 | 1.7 | 0.00 | 0.13 | 0.13 | 80 | 1013.3 |
| 20260505071553 | 59 | 163 | 1.7 | 2.6 | 0.00 | 0.13 | 0.13 | 79 | 1013.3 |
| 20260505071051 | 59 | 168 | 0.0 | 0.9 | 0.00 | 0.13 | 0.13 | 81 | 1013.4 |
| 20260505070548 | 59 | 55 | 1.7 | 3.5 | 0.00 | 0.13 | 0.13 | 78 | 1013.4 |
| 20260505070044 | 60 | 167 | 1.7 | 1.7 | 0.00 | 0.13 | 0.13 | 79 | 1013.4 |
| 20260505065540 | 60 | 131 | 0.9 | 1.7 | 0.00 | 0.13 | 0.13 | 76 | 1013.3 |
| 20260505065037 | 60 | 92 | 0.9 | 2.6 | 0.00 | 0.13 | 0.13 | 78 | 1013.3 |
| 20260505064534 | 60 | 163 | 0.0 | 0.9 | 0.00 | 0.13 | 0.13 | 80 | 1013.4 |
| 20260505064032 | 59 | 162 | 0.0 | 0.9 | 0.00 | 0.13 | 0.13 | 82 | 1013.2 |
| 20260505063529 | 58 | 196 | 1.7 | 1.7 | 0.00 | 0.13 | 0.13 | 83 | 1013.2 |
| 20260505063025 | 57 | 181 | 0.9 | 0.9 | 0.00 | 0.13 | 0.13 | 83 | 1013.5 |
| 20260505062522 | 57 | 175 | 0.9 | 1.7 | 0.00 | 0.13 | 0.13 | 84 | 1013.5 |
| 20260505062019 | 57 | 165 | 0.0 | 0.9 | 0.00 | 0.13 | 0.13 | 85 | 1013.3 |
| 20260505061517 | 57 | 158 | 1.7 | 3.5 | 0.00 | 0.13 | 0.13 | 84 | 1013.2 |
| 20260505061015 | 57 | 131 | 1.7 | 2.6 | 0.00 | 0.13 | 0.13 | 85 | 1013.3 |
| 20260505060512 | 56 | 154 | 1.7 | 2.6 | 0.00 | 0.13 | 0.13 | 85 | 1013.3 |
| 20260505060008 | 56 | 180 | 0.0 | 0.9 | 0.00 | 0.13 | 0.13 | 85 | 1013.2 |
| 20260505055504 | 56 | 81 | 1.7 | 1.7 | 0.00 | 0.13 | 0.13 | 86 | 1013.4 |
| 20260505055000 | 56 | 158 | 0.9 | 2.6 | 0.00 | 0.13 | 0.13 | 86 | 1013.3 |
| 20260505054458 | 56 | 90 | 0.9 | 1.7 | 0.00 | 0.13 | 0.13 | 89 | 1013.1 |
| 20260505053956 | 54 | 149 | 0.0 | 0.0 | 0.00 | 0.13 | 0.13 | 95 | 1013.4 |
| 20260505053453 | 53 | 168 | 0.0 | 0.0 | 0.00 | 0.13 | 0.13 | 95 | 1013.3 |
| 20260505052949 | 53 | 175 | 0.0 | 0.0 | 0.00 | 0.13 | 0.13 | 95 | 1013.4 |
| 20260505052447 | 54 | 172 | 0.0 | 0.0 | 0.00 | 0.13 | 0.13 | 95 | 1013.4 |
| 20260505051944 | 54 | 173 | 0.0 | 0.0 | 0.00 | 0.13 | 0.13 | 95 | 1013.2 |
| 20260505051440 | 53 | 173 | 0.0 | 0.0 | 0.00 | 0.13 | 0.13 | 96 | 1013.3 |
| 20260505050939 | 53 | 176 | 0.0 | 0.9 | 0.00 | 0.13 | 0.13 | 96 | 1013.5 |
| 20260505050437 | 53 | 168 | 0.0 | 0.9 | 0.00 | 0.13 | 0.13 | 97 | 1013.3 |
| 20260505041404 | 53 | 149 | 0.0 | 0.9 | 0.00 | 0.13 | 0.13 | 97 | 1013.0 |
| 20260505040901 | 53 | 160 | 0.0 | 0.9 | 0.07 | 0.13 | 0.13 | 97 | 1012.9 |
| 20260505040359 | 53 | 170 | 0.0 | 0.9 | 0.07 | 0.13 | 0.13 | 98 | 1013.1 |
| 20260505035855 | 53 | 148 | 0.0 | 0.9 | 0.00 | 0.12 | 0.12 | 97 | 1013.1 |
| 20260505035351 | 53 | 161 | 0.0 | 0.0 | 0.00 | 0.12 | 0.12 | 97 | 1013.4 |
| 20260505034849 | 53 | 160 | 0.0 | 0.0 | 0.00 | 0.12 | 0.12 | 97 | 1013.4 |
| 20260505034345 | 53 | 160 | 0.0 | 0.0 | 0.00 | 0.12 | 0.12 | 97 | 1013.4 |
| 20260505033842 | 53 | 160 | 0.0 | 0.0 | 0.00 | 0.12 | 0.12 | 97 | 1013.4 |
| 20260505033339 | 53 | 160 | 0.0 | 0.9 | 0.00 | 0.12 | 0.12 | 97 | 1013.3 |
| 20260505032838 | 53 | 127 | 0.9 | 0.9 | 0.00 | 0.12 | 0.12 | 97 | 1013.1 |
| 20260505032334 | 53 | 180 | 0.0 | 0.0 | 0.05 | 0.12 | 0.12 | 97 | 1013.2 |
| 20260505031831 | 53 | 180 | 0.0 | 0.9 | 0.05 | 0.12 | 0.12 | 97 | 1013.2 |
| 20260505031327 | 53 | 146 | 0.0 | 0.9 | 0.07 | 0.11 | 0.11 | 97 | 1012.8 |
| 20260505030825 | 53 | 150 | 0.0 | 0.0 | 0.07 | 0.11 | 0.11 | 97 | 1013.1 |
| 20260505030321 | 53 | 150 | 0.0 | 0.0 | 0.00 | 0.10 | 0.10 | 97 | 1013.1 |
| 20260505025816 | 53 | 149 | 0.0 | 0.0 | 0.00 | 0.10 | 0.10 | 97 | 1013.1 |
| 20260505025314 | 53 | 147 | 0.0 | 0.0 | 0.00 | 0.10 | 0.10 | 97 | 1013.0 |
| 20260505024812 | 53 | 169 | 0.0 | 0.0 | 0.00 | 0.10 | 0.10 | 97 | 1013.4 |
| 20260505024309 | 53 | 182 | 0.0 | 0.9 | 0.00 | 0.10 | 0.10 | 97 | 1013.2 |
| 20260505023807 | 53 | 162 | 0.0 | 0.0 | 0.00 | 0.10 | 0.10 | 96 | 1013.1 |
| 20260505023303 | 53 | 172 | 0.0 | 0.9 | 0.00 | 0.10 | 0.10 | 96 | 1013.1 |
| 20260505022801 | 53 | 184 | 0.0 | 0.9 | 0.05 | 0.10 | 0.10 | 96 | 1013.0 |
| 20260505022258 | 53 | 165 | 0.0 | 0.0 | 0.05 | 0.10 | 0.10 | 96 | 1012.7 |
| 20260505021754 | 53 | 164 | 0.0 | 0.0 | 0.00 | 0.09 | 0.09 | 96 | 1012.8 |
| 20260505021251 | 53 | 176 | 0.0 | 0.9 | 0.00 | 0.09 | 0.09 | 96 | 1012.7 |
| 20260505020747 | 53 | 152 | 0.9 | 1.7 | 0.00 | 0.09 | 0.09 | 96 | 1012.8 |
| 20260505020242 | 53 | 164 | 0.0 | 0.0 | 0.00 | 0.09 | 0.09 | 96 | 1012.9 |
| 20260505015740 | 53 | 178 | 0.0 | 1.7 | 0.07 | 0.09 | 0.09 | 95 | 1013.0 |
| 20260505015237 | 53 | 192 | 0.9 | 2.6 | 0.07 | 0.09 | 0.09 | 95 | 1013.0 |
| 20260505014734 | 53 | 199 | 1.7 | 2.6 | 0.00 | 0.08 | 0.08 | 95 | 1013.0 |
| 20260505014231 | 53 | 204 | 1.7 | 1.7 | 0.00 | 0.08 | 0.08 | 95 | 1012.6 |
| 20260505013728 | 53 | 136 | 1.7 | 1.7 | 0.00 | 0.08 | 0.08 | 95 | 1012.4 |
| 20260505013225 | 53 | 13 | 3.5 | 5.2 | 0.12 | 0.08 | 0.08 | 94 | 1012.5 |
| 20260505012723 | 53 | 151 | 0.0 | 0.9 | 0.19 | 0.08 | 0.08 | 94 | 1012.7 |
| 20260505012220 | 53 | 149 | 0.0 | 0.9 | 0.12 | 0.06 | 0.06 | 93 | 1012.9 |
| 20260505011716 | 53 | 134 | 0.9 | 0.9 | 0.07 | 0.04 | 0.04 | 92 | 1013.0 |
| 20260505011213 | 53 | 179 | 0.0 | 0.9 | 0.17 | 0.03 | 0.03 | 91 | 1013.2 |
| 20260505010708 | 53 | 188 | 0.9 | 0.9 | 0.17 | 0.03 | 0.03 | 89 | 1012.9 |
| 20260505010205 | 53 | 121 | 0.9 | 1.7 | 0.00 | 0.00 | 0.00 | 87 | 1013.0 |
| 20260505005701 | 53 | 174 | 0.0 | 0.0 | 0.00 | 0.00 | 0.00 | 86 | 1013.0 |
| 20260505005159 | 53 | 167 | 0.0 | 0.0 | 0.00 | 0.00 | 0.00 | 86 | 1013.0 |
| 20260505004656 | 53 | 153 | 0.0 | 0.0 | 0.00 | 0.00 | 0.00 | 85 | 1013.0 |
| 20260505004152 | 54 | 151 | 0.0 | 0.9 | 0.00 | 0.00 | 0.00 | 84 | 1012.9 |
| 20260505003649 | 54 | 161 | 0.0 | 0.0 | 0.00 | 0.00 | 0.00 | 84 | 1013.0 |
| 20260505003147 | 54 | 175 | 0.0 | 0.0 | 0.00 | 0.00 | 0.00 | 84 | 1013.3 |
| 20260505002643 | 54 | 176 | 0.0 | 0.0 | 0.00 | 0.00 | 0.00 | 83 | 1013.1 |
| 20260505002141 | 54 | 168 | 0.0 | 0.0 | 0.00 | 0.00 | 0.00 | 84 | 1013.0 |
| 20260505001638 | 54 | 168 | 0.0 | 0.0 | 0.00 | 0.00 | 0.00 | 84 | 1012.8 |
| 20260505001135 | 54 | 168 | 0.0 | 0.0 | 0.00 | 0.00 | 0.00 | 84 | 1013.1 |
| 20260505000632 | 54 | 167 | 0.0 | 0.0 | 0.00 | 0.00 | 0.00 | 83 | 1012.8 |
| 20260505000131 | 54 | 161 | 0.0 | 0.0 | 0.00 | 0.00 | 0.00 | 83 | 1012.9 |
| 20260504235626 | 54 | 161 | 0.0 | 0.0 | 0.00 | 0.00 | 0.00 | 82 | 1012.9 |
| 20260504235123 | 55 | 161 | 0.0 | 0.0 | 0.00 | 0.00 | 0.00 | 82 | 1013.0 |
| 20260504234620 | 55 | 161 | 0.0 | 0.0 | 0.00 | 0.00 | 0.00 | 83 | 1013.1 |
| 20260504234118 | 55 | 160 | 0.0 | 0.0 | 0.00 | 0.00 | 0.00 | 83 | 1013.0 |
| 20260504233613 | 54 | 161 | 0.0 | 0.0 | 0.00 | 0.00 | 0.00 | 83 | 1013.2 |
| 20260504233109 | 55 | 161 | 0.0 | 0.0 | 0.00 | 0.00 | 0.00 | 82 | 1012.9 |
| 20260504232607 | 55 | 161 | 0.0 | 0.0 | 0.00 | 0.00 | 0.00 | 82 | 1013.2 |
| 20260504232104 | 55 | 161 | 0.0 | 0.0 | 0.00 | 0.00 | 0.00 | 82 | 1013.1 |
| 20260504231600 | 55 | 161 | 0.0 | 0.0 | 0.00 | 0.00 | 0.00 | 82 | 1013.1 |
| 20260504231056 | 55 | 161 | 0.0 | 0.0 | 0.00 | 0.00 | 0.00 | 82 | 1013.1 |
| 20260504230553 | 55 | 161 | 0.0 | 0.0 | 0.00 | 0.00 | 0.00 | 81 | 1013.0 |
| 20260504230052 | 55 | 161 | 0.0 | 0.0 | 0.00 | 0.00 | 0.00 | 80 | 1013.0 |
| 20260504225549 | 55 | 161 | 0.0 | 0.0 | 0.00 | 0.00 | 0.00 | 80 | 1013.2 |
| 20260504225046 | 56 | 161 | 0.0 | 0.0 | 0.00 | 0.00 | 0.00 | 79 | 1013.2 |
| 20260504224542 | 56 | 161 | 0.0 | 0.0 | 0.00 | 0.00 | 0.00 | 79 | 1013.0 |
| 20260504224040 | 56 | 161 | 0.0 | 0.0 | 0.00 | 0.00 | 0.00 | 79 | 1013.2 |
| 20260504223537 | 56 | 161 | 0.0 | 0.0 | 0.00 | 0.00 | 0.00 | 79 | 1013.2 |
| 20260504223032 | 56 | 161 | 0.0 | 0.0 | 0.00 | 0.00 | 0.00 | 79 | 1013.2 |
| 20260504222529 | 56 | 161 | 0.0 | 0.0 | 0.00 | 0.00 | 0.00 | 80 | 1013.3 |
| 20260504222027 | 56 | 160 | 0.0 | 0.0 | 0.00 | 0.00 | 0.00 | 80 | 1013.2 |
| 20260504221524 | 56 | 161 | 0.0 | 0.0 | 0.00 | 0.00 | 0.00 | 79 | 1013.3 |
| 20260504221020 | 57 | 161 | 0.0 | 0.0 | 0.00 | 0.00 | 0.00 | 79 | 1013.3 |
| 20260504220517 | 57 | 160 | 0.0 | 0.0 | 0.00 | 0.00 | 0.00 | 79 | 1013.4 |
| 20260504220014 | 57 | 159 | 0.0 | 0.0 | 0.00 | 0.00 | 0.00 | 78 | 1013.3 |
| 20260504215510 | 57 | 157 | 0.0 | 0.9 | 0.00 | 0.00 | 0.00 | 79 | 1013.4 |
| 20260504215008 | 57 | 167 | 0.0 | 0.0 | 0.00 | 0.00 | 0.00 | 79 | 1013.4 |
| 20260504214504 | 57 | 165 | 0.0 | 0.9 | 0.00 | 0.00 | 0.00 | 79 | 1013.2 |
| 20260504214000 | 57 | 156 | 0.0 | 0.9 | 0.00 | 0.00 | 0.00 | 79 | 1013.2 |
| 20260504213456 | 57 | 159 | 0.0 | 0.0 | 0.00 | 0.00 | 0.00 | 80 | 1013.2 |
| 20260504212954 | 57 | 156 | 0.0 | 0.9 | 0.00 | 0.00 | 0.00 | 79 | 1013.2 |
| 20260504212450 | 57 | 159 | 0.0 | 0.0 | 0.00 | 0.00 | 0.00 | 79 | 1013.3 |
| 20260504211947 | 57 | 159 | 0.0 | 0.0 | 0.00 | 0.00 | 0.00 | 78 | 1013.2 |
| 20260504211444 | 58 | 159 | 0.0 | 0.0 | 0.00 | 0.00 | 0.00 | 78 | 1013.4 |
| 20260504210942 | 58 | 159 | 0.0 | 0.0 | 0.00 | 0.00 | 0.00 | 77 | 1013.2 |
| 20260504210438 | 58 | 159 | 0.0 | 0.0 | 0.00 | 0.00 | 0.00 | 77 | 1013.3 |
| 20260504205935 | 59 | 159 | 0.0 | 0.0 | 0.00 | 0.00 | 0.00 | 76 | 1013.2 |
| 20260504205433 | 59 | 159 | 0.0 | 0.9 | 0.00 | 0.00 | 0.00 | 76 | 1013.3 |
| 20260504204931 | 59 | 115 | 1.7 | 2.6 | 0.00 | 0.00 | 0.00 | 76 | 1013.4 |
| 20260504204429 | 59 | 163 | 0.0 | 0.9 | 0.00 | 0.00 | 0.00 | 75 | 1013.2 |
| 20260504203928 | 60 | 163 | 0.0 | 0.9 | 0.00 | 0.00 | 0.00 | 75 | 1013.2 |
| 20260504203425 | 60 | 64 | 1.7 | 2.6 | 0.00 | 0.00 | 0.00 | 74 | 1013.3 |
| 20260504202921 | 60 | 345 | 1.7 | 2.6 | 0.00 | 0.00 | 0.00 | 74 | 1013.1 |
| 20260504202417 | 60 | 108 | 1.7 | 3.5 | 0.00 | 0.00 | 0.00 | 74 | 1013.2 |
| 20260504201914 | 60 | 156 | 0.9 | 2.6 | 0.00 | 0.00 | 0.00 | 74 | 1013.3 |
| 20260504201412 | 60 | 161 | 0.0 | 5.2 | 0.00 | 0.00 | 0.00 | 74 | 1013.1 |
| 20260504200909 | 60 | 26 | 3.5 | 5.2 | 0.00 | 0.00 | 0.00 | 73 | 1013.1 |
| 20260504200405 | 61 | 49 | 1.7 | 3.5 | 0.00 | 0.00 | 0.00 | 73 | 1013.0 |
| 20260504195902 | 61 | 49 | 3.5 | 5.2 | 0.00 | 0.00 | 0.00 | 72 | 1012.8 |
| 20260504195358 | 61 | 57 | 1.7 | 2.6 | 0.00 | 0.00 | 0.00 | 72 | 1013.0 |
| 20260504194855 | 62 | 122 | 1.7 | 5.2 | 0.00 | 0.00 | 0.00 | 71 | 1013.0 |
| 20260504194350 | 62 | 93 | 4.3 | 6.1 | 0.00 | 0.00 | 0.00 | 71 | 1012.8 |
| 20260504193847 | 62 | 54 | 1.7 | 3.5 | 0.00 | 0.00 | 0.00 | 71 | 1012.6 |
| 20260504193344 | 62 | 44 | 1.7 | 2.6 | 0.00 | 0.00 | 0.00 | 70 | 1012.5 |
| 20260504192843 | 63 | 356 | 3.5 | 8.7 | 0.00 | 0.00 | 0.00 | 70 | 1012.7 |
| 20260504192340 | 63 | 20 | 7.0 | 8.7 | 0.00 | 0.00 | 0.00 | 69 | 1012.6 |
| 20260504191838 | 63 | 45 | 3.5 | 7.0 | 0.00 | 0.00 | 0.00 | 68 | 1012.6 |
| 20260504191336 | 63 | 94 | 1.7 | 1.7 | 0.00 | 0.00 | 0.00 | 68 | 1012.6 |
| 20260504190831 | 64 | 11 | 4.3 | 7.0 | 0.00 | 0.00 | 0.00 | 68 | 1012.3 |
| 20260504190327 | 64 | 275 | 1.7 | 3.5 | 0.00 | 0.00 | 0.00 | 68 | 1012.5 |
| 20260504185824 | 64 | 343 | 3.5 | 5.2 | 0.00 | 0.00 | 0.00 | 67 | 1012.4 |
| 20260504185321 | 64 | 65 | 1.7 | 6.1 | 0.00 | 0.00 | 0.00 | 67 | 1012.3 |
| 20260504184817 | 65 | 279 | 1.7 | 6.1 | 0.00 | 0.00 | 0.00 | 66 | 1012.3 |
| 20260504184313 | 65 | 10 | 4.3 | 7.8 | 0.00 | 0.00 | 0.00 | 66 | 1012.1 |
| 20260504183809 | 66 | 34 | 3.5 | 9.6 | 0.00 | 0.00 | 0.00 | 65 | 1012.1 |
| 20260504183306 | 66 | 11 | 3.5 | 7.0 | 0.00 | 0.00 | 0.00 | 64 | 1011.9 |
| 20260504182804 | 67 | 29 | 6.1 | 9.6 | 0.00 | 0.00 | 0.00 | 63 | 1011.7 |
| 20260504182301 | 68 | 20 | 10.4 | 12.2 | 0.00 | 0.00 | 0.00 | 61 | 1012.0 |
| 20260504181759 | 69 | 283 | 5.2 | 12.2 | 0.00 | 0.00 | 0.00 | 58 | 1011.5 |
| 20260504181255 | 70 | 334 | 5.2 | 7.8 | 0.00 | 0.00 | 0.00 | 54 | 1011.7 |
| 20260504180755 | 71 | 343 | 7.0 | 11.3 | 0.00 | 0.00 | 0.00 | 53 | 1011.4 |
| 20260504180253 | 71 | 62 | 2.6 | 3.5 | 0.00 | 0.00 | 0.00 | 49 | 1011.3 |
| 20260504175750 | 71 | 13 | 6.1 | 7.8 | 0.00 | 0.00 | 0.00 | 48 | 1011.2 |
| 20260504175247 | 71 | 115 | 1.7 | 2.6 | 0.00 | 0.00 | 0.00 | 38 | 1011.2 |
| 20260504174745 | 72 | 182 | 0.0 | 0.9 | 0.00 | 0.00 | 0.00 | 37 | 1011.2 |
| 20260504174243 | 72 | 131 | 0.9 | 2.6 | 0.00 | 0.00 | 0.00 | 37 | 1011.0 |
| 20260504173739 | 73 | 97 | 1.7 | 1.7 | 0.00 | 0.00 | 0.00 | 36 | 1010.8 |
| 20260504173236 | 73 | 205 | 0.0 | 0.9 | 0.00 | 0.00 | 0.00 | 34 | 1010.8 |
| 20260504172733 | 74 | 171 | 0.0 | 0.9 | 0.00 | 0.00 | 0.00 | 34 | 1010.7 |
| 20260504172229 | 75 | 197 | 1.7 | 2.6 | 0.00 | 0.00 | 0.00 | 33 | 1010.7 |
| 20260504171725 | 75 | 214 | 2.6 | 3.5 | 0.00 | 0.00 | 0.00 | 32 | 1010.6 |
| 20260504171222 | 75 | 212 | 1.7 | 2.6 | 0.00 | 0.00 | 0.00 | 32 | 1010.7 |
| 20260504170719 | 76 | 194 | 1.7 | 7.0 | 0.00 | 0.00 | 0.00 | 32 | 1010.6 |
| 20260504170217 | 76 | 196 | 1.7 | 5.2 | 0.00 | 0.00 | 0.00 | 31 | 1010.6 |
| 20260504160135 | 77 | 187 | 3.5 | 5.2 | 0.00 | 0.00 | 0.00 | 29 | 1010.5 |
| 20260504151102 | 78 | 224 | 6.1 | 7.0 | 0.00 | 0.00 | 0.00 | 27 | 1010.4 |
| 20260504150600 | 79 | 233 | 5.2 | 8.7 | 0.00 | 0.00 | 0.00 | 26 | 1010.6 |
| 20260504141026 | 80 | 289 | 0.9 | 7.8 | 0.00 | 0.00 | 0.00 | 25 | 1010.5 |
| 20260504140522 | 81 | 187 | 1.7 | 6.1 | 0.00 | 0.00 | 0.00 | 26 | 1010.5 |
| 20260504130447 | 81 | 189 | 5.2 | 7.8 | 0.00 | 0.00 | 0.00 | 27 | 1010.9 |
| 20260504110334 | 79 | 194 | 0.9 | 8.7 | 0.00 | 0.00 | 0.00 | 24 | 1011.8 |
| 20260504100251 | 78 | 217 | 7.8 | 11.3 | 0.00 | 0.00 | 0.00 | 23 | 1012.5 |
| 20260504081645 | 74 | 211 | 4.3 | 7.0 | 0.00 | 0.00 | 0.00 | 37 | 1013.1 |
| 20260504081141 | 74 | 173 | 3.5 | 7.0 | 0.00 | 0.00 | 0.00 | 37 | 1013.2 |
| 20260504080637 | 74 | 190 | 4.3 | 7.8 | 0.00 | 0.00 | 0.00 | 37 | 1013.2 |
| 20260504080134 | 74 | 195 | 7.8 | 8.7 | 0.00 | 0.00 | 0.00 | 36 | 1013.0 |